[Iaude] MPEC U231: 2023 UP7 [a=2.67,e=0.57,i=25.2,H=19.0]
    mpec at marsden.cfa.harvard.edu 
    mpec at marsden.cfa.harvard.edu
       
    Tue Oct 24 17:35:45 EDT 2023
    
    
  
M.P.E.C. 2023-U231                             Issued 2023 October 24, 21:34 UT
     The Minor Planet Electronic Circulars contain information on unusual
         minor planets, routine data on comets and natural satellites,
         and occasional editorial announcements.  They are published
    on behalf of Division F of the International Astronomical Union by the
          Minor Planet Center, Smithsonian Astrophysical Observatory,
                          Cambridge, MA 02138, U.S.A.
			  
             Prepared using the Tamkin Foundation Computer Network
                              MPC at CFA.HARVARD.EDU
            URL https://www.minorplanetcenter.net/    ISSN 1523-6714
                                    2023 UP7                                    
Observations:
     K23U07P* C2023 10 16.56506807 42 00.460+27 33 01.36         22.07wXEU231F52
     K23U07P  C2023 10 16.58932907 42 04.186+27 32 32.74         22.03wXEU231F52
     K23U07P  C2023 10 16.60149807 42 06.012+27 32 19.24         22.25wXEU231F52
     K23U07P 3C2023 10 18.59037607 47 15.718+26 52 13.82         21.61GVEU231T14
     K23U07P 3C2023 10 18.59135407 47 15.867+26 52 12.61         21.70GVEU231T14
     K23U07P 3C2023 10 18.59235807 47 16.022+26 52 11.36         21.77GVEU231T14
     K23U07P  C2023 10 21.58208507 55 01.405+25 47 44.46         21.67GVEU231F52
     K23U07P  C2023 10 21.59242407 55 02.996+25 47 30.71         21.77GVEU231F52
     K23U07P  C2023 10 21.60277307 55 04.571+25 47 17.08         22.16GVEU231F52
     K23U07P  C2023 10 21.61307707 55 06.153+25 47 03.16         21.91GVEU231F52
     K23U07P  C2023 10 24.59600908 02 50.402+24 37 24.40         22.26wXEU231F51
     K23U07P  C2023 10 24.60514108 02 51.799+24 37 11.27         22.09wXEU231F51
     K23U07P  C2023 10 24.61356808 02 53.090+24 36 58.90         21.68wXEU231F51
     K23U07P  C2023 10 24.62201308 02 54.385+24 36 46.76         22.03wXEU231F51
Observer details:
F51 Pan-STARRS 1, Haleakala.  Observers J. Bulger, T. Lowe, P. Minguez, A.
    Schultz, I. Smith.  Measurers K. Chambers, T. de Boer, J. Fairlamb, H.
    Gao, M. Huber, C.-C. Lin, E. Magnier, Y. Ramanjooloo, R. Wainscoat, R.
    Weryk.  1.8-m Ritchey-Chretien + CCD.
F52 Pan-STARRS 2, Haleakala.  Observers J. Bulger, T. Lowe, P. Minguez, A.
    Schultz, I. Smith.  Measurers K. Chambers, T. de Boer, J. Fairlamb, H.
    Gao, M. Huber, C.-C. Lin, E. Magnier, Y. Ramanjooloo, R. Wainscoat, R.
    Weryk.  1.8-m Ritchey-Chretien + CCD.
T14 Canada-France-Hawaii Telescope, Maunakea.  Observers R. Wainscoat, H.
    Januszewski, T. Burdullis.  Measurers R. Weryk, R. Wainscoat.  3.6-m f/4.1
    reflector + CCD.
Orbital elements:
2023 UP7                                                 Earth MOID = 0.3536 AU
Epoch 2023 Sept. 13.0 TT = JDT 2460200.5                Bell                    
M 329.60187              (2000.0)            P               Q                  
n   0.22586845     Peri.  246.83809     -0.79284286     -0.43720490             
a   2.6703345      Node   264.82976     +0.58407038     -0.74398354             
e   0.5664219      Incl.   25.23269     -0.17395973     -0.50531214             
P   4.36           H   19.08          G   0.15           U   9                  
Residuals in seconds of arc
231016 F52  0.0   0.0     231018 T14  0.0   0.0     231024 F51  0.0   0.0
231016 F52  0.1+  0.4-    231021 F52  0.1-  0.1-    231024 F51  0.0   0.1+
231016 F52  0.4-  0.3+    231021 F52  0.0   0.1-    231024 F51  0.0   0.1-
231018 T14  0.0   0.0     231021 F52  0.1-  0.1+    231024 F51  0.1+  0.0
231018 T14  0.0   0.0     231021 F52  0.0   0.0
Ephemeris:
2023 UP7                 a,e,i = 2.67, 0.57, 25                  q = 1.1578
Date    TT    R. A. (2000) Decl.     Delta      r    Elong.  Phase     V
2023 09 24    06 43 35.6 +32 57 30   1.6391  1.7868    81.2    33.7    22.8
...
2023 10 09    07 22 22.1 +29 46 44   1.3986  1.6787    87.2    36.5    22.4
...
2023 10 17    07 43 07.7 +27 24 28   1.2758  1.6217    90.2    37.9    22.2
...
2023 10 23    07 58 41.7 +25 15 22   1.1873  1.5795    92.3    39.0    22.0
2023 10 24    08 01 17.3 +24 51 47   1.1728  1.5725    92.6    39.2    22.0
2023 10 25    08 03 52.9 +24 27 34   1.1585  1.5656    93.0    39.4    21.9
...
2023 10 31    08 19 26.7 +21 48 26   1.0749  1.5243    94.9    40.5    21.7
...
2023 11 08    08 40 12.7 +17 35 18   0.9703  1.4706    97.1    42.0    21.5
...
2023 11 23    09 19 18.6 +07 11 29   0.8012  1.3759   100.0    45.0    21.0
M. P. C. Staff               (C) Copyright 2023 MPC           M.P.E.C. 2023-U231
    
    
More information about the Iaude
mailing list